Location: Mentone
(34.5413°N, 85.5351°W)
Time: 01:08:02
(UTC-05:00)

Cosmos 2026 Rocket - Visible Passes

Search period start: 29 March 2015 00:00
Search period end: 08 April 2015 00:00
Orbit: 940 x 1002 km, 82.9° (Epoch: 28 March)

Date Brightness Start Highest point End Pass type
(mag) Time Alt. Az. Time Alt. Az. Time Alt. Az.
01 Apr 6.8 01:18:31 11° N 01:18:31 11° N 01:18:38 10° N visible
03 Apr 6.8 00:21:25 10° NNE 00:21:25 10° NNE 00:21:30 10° NNE visible
04 Apr 6.7 00:45:07 12° N 00:45:07 12° N 00:45:31 10° N visible
05 Apr 6.7 01:08:48 11° NNW 01:08:48 11° NNW 01:09:08 10° NNW visible
05 Apr 6.6 23:47:56 11° NNE 23:47:56 11° NNE 23:48:09 10° NNE visible
07 Apr 6.5 00:11:37 14° N 00:11:37 14° N 00:12:20 10° N visible
